Year,Month,Day,Hour,Minute,Value (Times are PST for temperature in C)
2011,04,20,00,00,1.70
2011,04,20,00,01,1.70
2011,04,20,00,02,1.60
2011,04,20,00,03,1.60
2011,04,20,00,04,1.60
2011,04,20,00,05,1.60
2011,04,20,00,06,1.60
2011,04,20,00,07,1.60
2011,04,20,00,08,1.60
2011,04,20,00,09,1.60
2011,04,20,00,10,1.50
2011,04,20,00,11,1.50
2011,04,20,00,12,1.50
2011,04,20,00,18,1.50
2011,04,20,00,19,1.40
2011,04,20,00,20,1.40
2011,04,20,00,21,1.40
2011,04,20,00,22,1.40
2011,04,20,00,23,1.30
2011,04,20,00,24,1.30
2011,04,20,00,25,1.30
2011,04,20,00,26,1.30
2011,04,20,00,27,1.30
2011,04,20,00,28,1.30
2011,04,20,00,29,1.30
2011,04,20,00,30,1.30
2011,04,20,00,31,1.30
2011,04,20,00,32,1.30
2011,04,20,00,33,1.20
2011,04,20,00,34,1.20
2011,04,20,00,35,1.20
2011,04,20,00,36,1.10
2011,04,20,00,37,1.10
2011,04,20,00,38,1.10
2011,04,20,00,39,1.10
2011,04,20,00,40,1.10
2011,04,20,00,41,1.00
2011,04,20,00,42,1.00
2011,04,20,00,43,1.00
2011,04,20,00,44,0.90
2011,04,20,00,45,0.90
2011,04,20,00,46,0.90
2011,04,20,00,47,0.90
2011,04,20,00,48,0.80
2011,04,20,00,49,0.80
2011,04,20,00,50,0.80
2011,04,20,00,51,0.80
2011,04,20,00,52,0.70
2011,04,20,00,53,0.70
2011,04,20,00,54,0.70
2011,04,20,00,55,0.70
2011,04,20,00,56,0.70
2011,04,20,00,57,0.70
2011,04,20,00,58,0.70
2011,04,20,00,59,0.70
2011,04,20,01,00,0.70
2011,04,20,01,01,0.60
2011,04,20,01,02,0.60
2011,04,20,01,03,0.60
2011,04,20,01,04,0.60
2011,04,20,01,05,0.60
2011,04,20,01,06,0.60
2011,04,20,01,07,0.50
2011,04,20,01,08,0.50
2011,04,20,01,09,0.50
2011,04,20,01,10,0.50
2011,04,20,01,11,0.50
2011,04,20,01,12,0.50
2011,04,20,01,13,0.50
2011,04,20,01,14,0.40
2011,04,20,01,15,0.40
2011,04,20,01,16,0.40
2011,04,20,01,17,0.40
2011,04,20,01,18,0.40
2011,04,20,01,19,0.40
2011,04,20,01,20,0.40
2011,04,20,01,21,0.40
2011,04,20,01,22,0.40
2011,04,20,01,23,0.40
2011,04,20,01,24,0.40
2011,04,20,01,25,0.40
2011,04,20,01,26,0.40
2011,04,20,01,27,0.30
2011,04,20,01,28,0.30
2011,04,20,01,29,0.30
2011,04,20,01,30,0.30
2011,04,20,01,31,0.30
2011,04,20,01,32,0.30
2011,04,20,01,33,0.30
2011,04,20,01,34,0.30
2011,04,20,01,35,0.30
2011,04,20,01,36,0.30
2011,04,20,01,37,0.20
2011,04,20,01,38,0.20
2011,04,20,01,39,0.20
2011,04,20,01,40,0.20
2011,04,20,01,41,0.20
2011,04,20,01,42,0.20
2011,04,20,01,43,0.10
2011,04,20,01,44,0.10
2011,04,20,01,45,0.10
2011,04,20,01,46,0.10
2011,04,20,01,47,0.10
2011,04,20,01,48,0.10
2011,04,20,01,49,0.10
2011,04,20,01,50,0.10
2011,04,20,01,51,0.10
2011,04,20,01,52,0.00
2011,04,20,01,53,0.00
2011,04,20,01,54,0.00
2011,04,20,01,55,0.00
2011,04,20,01,56,0.00
2011,04,20,01,57,0.00
2011,04,20,01,58,0.00
2011,04,20,01,59,0.00
2011,04,20,02,00,0.00
2011,04,20,02,01,-0.10
2011,04,20,02,02,-0.10
2011,04,20,02,03,-0.10
2011,04,20,02,04,-0.10
2011,04,20,02,05,-0.10
2011,04,20,02,06,-0.10
2011,04,20,02,07,-0.10
2011,04,20,02,08,-0.10
2011,04,20,02,09,-0.10
2011,04,20,02,10,-0.10
2011,04,20,02,11,-0.10
2011,04,20,02,12,-0.20
2011,04,20,02,13,-0.20
2011,04,20,02,14,-0.20
2011,04,20,02,15,-0.20
2011,04,20,02,16,-0.20
2011,04,20,02,17,-0.20
2011,04,20,02,18,-0.20
2011,04,20,02,19,-0.20
2011,04,20,02,20,-0.20
2011,04,20,02,21,-0.20
2011,04,20,02,22,-0.20
2011,04,20,02,23,-0.20
2011,04,20,02,24,-0.30
2011,04,20,02,25,-0.30
2011,04,20,02,26,-0.30
2011,04,20,02,27,-0.30
2011,04,20,02,28,-0.40
2011,04,20,02,29,-0.40
2011,04,20,02,30,-0.40
2011,04,20,02,31,-0.50
2011,04,20,02,32,-0.50
2011,04,20,02,33,-0.50
2011,04,20,02,34,-0.60
2011,04,20,02,35,-0.60
2011,04,20,02,36,-0.60
2011,04,20,02,37,-0.60
2011,04,20,02,38,-0.60
2011,04,20,02,39,-0.60
2011,04,20,02,40,-0.60
2011,04,20,02,41,-0.60
2011,04,20,02,42,-0.60
2011,04,20,02,43,-0.60
2011,04,20,02,44,-0.60
2011,04,20,02,45,-0.60
2011,04,20,02,46,-0.60
2011,04,20,02,47,-0.60
2011,04,20,02,48,-0.60
2011,04,20,02,49,-0.70
2011,04,20,02,50,-0.70
2011,04,20,02,51,-0.70
2011,04,20,02,52,-0.70
2011,04,20,02,53,-0.70
2011,04,20,02,54,-0.70
2011,04,20,02,55,-0.70
2011,04,20,02,56,-0.70
2011,04,20,02,57,-0.70
2011,04,20,02,58,-0.70
2011,04,20,02,59,-0.70
2011,04,20,03,00,-0.70
2011,04,20,03,01,-0.80
2011,04,20,03,02,-0.80
2011,04,20,03,03,-0.80
2011,04,20,03,04,-0.80
2011,04,20,03,05,-0.80
2011,04,20,03,06,-0.80
2011,04,20,03,07,-0.90
2011,04,20,03,08,-0.90
2011,04,20,03,09,-0.90
2011,04,20,03,10,-0.90
2011,04,20,03,11,-1.00
2011,04,20,03,12,-1.00
2011,04,20,03,13,-1.00
2011,04,20,03,14,-1.00
2011,04,20,03,15,-1.00
2011,04,20,03,16,-1.00
2011,04,20,03,17,-1.00
2011,04,20,03,18,-1.00
2011,04,20,03,19,-1.00
2011,04,20,03,20,-1.00
2011,04,20,03,21,-1.00
2011,04,20,03,22,-1.00
2011,04,20,03,23,-1.00
2011,04,20,03,24,-1.00
2011,04,20,03,25,-1.00
2011,04,20,03,26,-1.00
2011,04,20,03,27,-1.00
2011,04,20,03,28,-1.00
2011,04,20,03,29,-1.00
2011,04,20,03,30,-1.00
2011,04,20,03,31,-1.00
2011,04,20,03,32,-1.00
2011,04,20,03,33,-1.00
2011,04,20,03,34,-1.00
2011,04,20,03,35,-1.00
2011,04,20,03,36,-1.00
2011,04,20,03,37,-1.00
2011,04,20,03,38,-1.10
2011,04,20,03,39,-1.10
2011,04,20,03,40,-1.10
2011,04,20,03,41,-1.10
2011,04,20,03,42,-1.10
2011,04,20,03,43,-1.10
2011,04,20,03,44,-1.20
2011,04,20,03,45,-1.20
2011,04,20,03,46,-1.20
2011,04,20,03,47,-1.20
2011,04,20,03,48,-1.20
2011,04,20,03,49,-1.10
2011,04,20,03,50,-1.10
2011,04,20,03,51,-1.10
2011,04,20,03,52,-1.10
2011,04,20,03,53,-1.10
2011,04,20,03,54,-1.10
2011,04,20,03,55,-1.10
2011,04,20,03,56,-1.10
2011,04,20,03,57,-1.10
2011,04,20,03,58,-1.10
2011,04,20,03,59,-1.10
2011,04,20,04,00,-1.10
2011,04,20,04,01,-1.10
2011,04,20,04,02,-1.10
2011,04,20,04,03,-1.10
2011,04,20,04,04,-1.20
2011,04,20,04,05,-1.20
2011,04,20,04,06,-1.20
2011,04,20,04,07,-1.20
2011,04,20,04,08,-1.20
2011,04,20,04,09,-1.20
2011,04,20,04,10,-1.20
2011,04,20,04,11,-1.20
2011,04,20,04,12,-1.20
2011,04,20,04,13,-1.20
2011,04,20,04,14,-1.20
2011,04,20,04,15,-1.20
2011,04,20,04,16,-1.20
2011,04,20,04,17,-1.20
2011,04,20,04,18,-1.10
2011,04,20,04,19,-1.10
2011,04,20,04,20,-1.10
2011,04,20,04,21,-1.10
2011,04,20,04,22,-1.10
2011,04,20,04,23,-1.10
2011,04,20,04,24,-1.10
2011,04,20,04,25,-1.10
2011,04,20,04,26,-1.10
2011,04,20,04,27,-1.10
2011,04,20,04,28,-1.10
2011,04,20,04,29,-1.00
2011,04,20,04,30,-1.00
2011,04,20,04,31,-1.00
2011,04,20,04,32,-1.00
2011,04,20,04,33,-1.00
2011,04,20,04,34,-1.10
2011,04,20,04,35,-1.10
2011,04,20,04,36,-1.10
2011,04,20,04,37,-1.10
2011,04,20,04,38,-1.10
2011,04,20,04,39,-1.10
2011,04,20,04,40,-1.10
2011,04,20,04,41,-1.10
2011,04,20,04,42,-1.10
2011,04,20,04,43,-1.20
2011,04,20,04,44,-1.20
2011,04,20,04,45,-1.20
2011,04,20,04,46,-1.20
2011,04,20,04,47,-1.20
2011,04,20,04,48,-1.30
2011,04,20,04,49,-1.30
2011,04,20,04,50,-1.30
2011,04,20,04,51,-1.30
2011,04,20,04,52,-1.30
2011,04,20,04,53,-1.30
2011,04,20,04,54,-1.20
2011,04,20,04,55,-1.20
2011,04,20,04,56,-1.20
2011,04,20,04,57,-1.20
2011,04,20,04,58,-1.20
2011,04,20,04,59,-1.20
2011,04,20,05,00,-1.20
2011,04,20,05,01,-1.20
2011,04,20,05,02,-1.20
2011,04,20,05,03,-1.20
2011,04,20,05,04,-1.20
2011,04,20,05,05,-1.20
2011,04,20,05,06,-1.20
2011,04,20,05,07,-1.20
2011,04,20,05,08,-1.20
2011,04,20,05,09,-1.20
2011,04,20,05,10,-1.20
2011,04,20,05,11,-1.20
2011,04,20,05,12,-1.20
2011,04,20,05,13,-1.20
2011,04,20,05,14,-1.20
2011,04,20,05,15,-1.20
2011,04,20,05,16,-1.20
2011,04,20,05,17,-1.10
2011,04,20,05,18,-1.10
2011,04,20,05,19,-1.10
2011,04,20,05,20,-1.10
2011,04,20,05,21,-1.10
2011,04,20,05,22,-1.00
2011,04,20,05,23,-1.00
2011,04,20,05,24,-1.00
2011,04,20,05,25,-1.00
2011,04,20,05,26,-1.00
2011,04,20,05,27,-1.00
2011,04,20,05,28,-1.00
2011,04,20,05,29,-1.00
2011,04,20,05,30,-0.90
2011,04,20,05,31,-0.90
2011,04,20,05,32,-0.90
2011,04,20,05,33,-0.90
2011,04,20,05,34,-0.90
2011,04,20,05,35,-0.90
2011,04,20,05,36,-0.90
2011,04,20,05,37,-0.90
2011,04,20,05,38,-0.90
2011,04,20,05,39,-0.90
2011,04,20,05,40,-0.90
2011,04,20,05,41,-0.90
2011,04,20,05,42,-1.00
2011,04,20,05,43,-1.00
2011,04,20,05,44,-1.00
2011,04,20,05,45,-1.00
2011,04,20,05,46,-1.10
2011,04,20,05,47,-1.10
2011,04,20,05,48,-1.10
2011,04,20,05,49,-1.10
2011,04,20,05,50,-1.10
2011,04,20,05,51,-1.10
2011,04,20,05,52,-1.00
2011,04,20,05,53,-1.10
2011,04,20,05,54,-1.10
2011,04,20,05,55,-1.10
2011,04,20,05,56,-1.10
2011,04,20,05,57,-1.10
2011,04,20,05,58,-1.10
2011,04,20,05,59,-1.10
2011,04,20,06,00,-1.10
2011,04,20,06,01,-1.10
2011,04,20,06,02,-1.10
2011,04,20,06,03,-1.10
2011,04,20,06,04,-1.10
2011,04,20,06,05,-1.10
2011,04,20,06,06,-1.20
2011,04,20,06,07,-1.20
2011,04,20,06,08,-1.20
2011,04,20,06,09,-1.20
2011,04,20,06,10,-1.20
2011,04,20,06,11,-1.20
2011,04,20,06,12,-1.20
2011,04,20,06,13,-1.20
2011,04,20,06,14,-1.30
2011,04,20,06,15,-1.30
2011,04,20,06,16,-1.30
2011,04,20,06,17,-1.30
2011,04,20,06,18,-1.30
2011,04,20,06,19,-1.30
2011,04,20,06,20,-1.30
2011,04,20,06,21,-1.30
2011,04,20,06,22,-1.30
2011,04,20,06,23,-1.30
2011,04,20,06,24,-1.30
2011,04,20,06,25,-1.20
2011,04,20,06,26,-1.20
2011,04,20,06,27,-1.20
2011,04,20,06,28,-1.20
2011,04,20,06,29,-1.20
2011,04,20,06,30,-1.10
2011,04,20,06,31,-1.10
2011,04,20,06,32,-1.10
2011,04,20,06,33,-1.10
2011,04,20,06,34,-1.10
2011,04,20,06,35,-1.10
2011,04,20,06,36,-1.10
2011,04,20,06,37,-1.10
2011,04,20,06,38,-1.10
2011,04,20,06,39,-1.10
2011,04,20,06,40,-1.10
2011,04,20,06,41,-1.10
2011,04,20,06,42,-1.10
2011,04,20,06,43,-1.10
2011,04,20,06,44,-1.10
2011,04,20,06,45,-1.10
2011,04,20,06,46,-1.10
2011,04,20,06,47,-1.10
2011,04,20,06,48,-1.00
2011,04,20,06,49,-1.00
2011,04,20,06,50,-1.00
2011,04,20,06,51,-0.90
2011,04,20,06,52,-0.90
2011,04,20,06,53,-0.90
2011,04,20,06,54,-0.90
2011,04,20,06,55,-0.90
2011,04,20,06,56,-0.90
2011,04,20,06,57,-0.90
2011,04,20,06,58,-0.90
2011,04,20,06,59,-0.90
2011,04,20,07,00,-0.80
2011,04,20,07,01,-0.80
2011,04,20,07,02,-0.80
2011,04,20,07,03,-0.80
2011,04,20,07,04,-0.80
2011,04,20,07,05,-0.80
2011,04,20,07,06,-0.70
2011,04,20,07,07,-0.70
2011,04,20,07,08,-0.60
2011,04,20,07,09,-0.60
2011,04,20,07,10,-0.50
2011,04,20,07,11,-0.50
2011,04,20,07,12,-0.40
2011,04,20,07,13,-0.40
2011,04,20,07,14,-0.40
2011,04,20,07,15,-0.30
2011,04,20,07,16,-0.30
2011,04,20,07,17,-0.30
2011,04,20,07,18,-0.30
2011,04,20,07,19,-0.30
2011,04,20,07,20,-0.30
2011,04,20,07,21,-0.30
2011,04,20,07,22,-0.30
2011,04,20,07,23,-0.30
2011,04,20,07,24,-0.30
2011,04,20,07,25,-0.20
2011,04,20,07,26,-0.20
2011,04,20,07,27,-0.20
2011,04,20,07,28,-0.20
2011,04,20,07,29,-0.20
2011,04,20,07,30,-0.10
2011,04,20,07,31,-0.10
2011,04,20,07,32,-0.10
2011,04,20,07,33,-0.10
2011,04,20,07,34,0.00
2011,04,20,07,35,0.00
2011,04,20,07,36,0.10
2011,04,20,07,37,0.10
2011,04,20,07,38,0.10
2011,04,20,07,39,0.20
2011,04,20,07,40,0.20
2011,04,20,07,41,0.20
2011,04,20,07,42,0.30
2011,04,20,07,43,0.30
2011,04,20,07,44,0.30
2011,04,20,07,45,0.40
2011,04,20,07,46,0.40
2011,04,20,07,47,0.50
2011,04,20,07,48,0.50
2011,04,20,07,49,0.50
2011,04,20,07,50,0.60
2011,04,20,07,51,0.60
2011,04,20,07,52,0.70
2011,04,20,07,53,0.70
2011,04,20,07,54,0.80
2011,04,20,07,55,0.80
2011,04,20,07,56,0.80
2011,04,20,07,57,0.90
2011,04,20,07,58,0.90
2011,04,20,07,59,0.90
2011,04,20,08,00,0.90
2011,04,20,08,01,1.00
2011,04,20,08,02,1.00
2011,04,20,08,03,1.10
2011,04,20,08,04,1.10
2011,04,20,08,05,1.10
2011,04,20,08,06,1.10
2011,04,20,08,07,1.20
2011,04,20,08,08,1.20
2011,04,20,08,09,1.20
2011,04,20,08,10,1.30
2011,04,20,08,11,1.30
2011,04,20,08,12,1.30
2011,04,20,08,13,1.30
2011,04,20,08,14,1.30
2011,04,20,08,15,1.30
2011,04,20,08,16,1.40
2011,04,20,08,17,1.40
2011,04,20,08,18,1.50
2011,04,20,08,19,1.60
2011,04,20,08,20,1.60
2011,04,20,08,21,1.60
2011,04,20,08,22,1.70
2011,04,20,08,23,1.80
2011,04,20,08,24,1.80
2011,04,20,08,25,1.80
2011,04,20,08,26,1.90
2011,04,20,08,27,2.00
2011,04,20,08,28,2.10
2011,04,20,08,29,2.10
2011,04,20,08,30,2.20
2011,04,20,08,31,2.20
2011,04,20,08,32,2.30
2011,04,20,08,33,2.30
2011,04,20,08,34,2.40
2011,04,20,08,35,2.40
2011,04,20,08,36,2.50
2011,04,20,08,37,2.50
2011,04,20,08,38,2.60
2011,04,20,08,39,2.60
2011,04,20,08,40,2.70
2011,04,20,08,41,2.70
2011,04,20,08,42,2.80
2011,04,20,08,43,2.90
2011,04,20,08,44,2.90
2011,04,20,08,45,3.00
2011,04,20,08,46,3.00
2011,04,20,08,47,3.10
2011,04,20,08,48,3.20
2011,04,20,08,49,3.20
2011,04,20,08,50,3.30
2011,04,20,08,51,3.30
2011,04,20,08,52,3.40
2011,04,20,08,53,3.40
2011,04,20,08,54,3.50
2011,04,20,08,55,3.50
2011,04,20,08,56,3.60
2011,04,20,08,57,3.70
2011,04,20,08,58,3.70
2011,04,20,08,59,3.80
2011,04,20,09,00,3.90
2011,04,20,09,01,3.90
2011,04,20,09,02,4.00
2011,04,20,09,03,4.10
2011,04,20,09,04,4.10
2011,04,20,09,05,4.20
2011,04,20,09,06,4.20
2011,04,20,09,07,4.30
2011,04,20,09,08,4.30
2011,04,20,09,09,4.40
2011,04,20,09,10,4.40
2011,04,20,09,11,4.50
2011,04,20,09,12,4.50
2011,04,20,09,13,4.60
2011,04,20,09,14,4.70
2011,04,20,09,15,4.70
2011,04,20,09,16,4.70
2011,04,20,09,17,4.80
2011,04,20,09,18,4.80
2011,04,20,09,19,4.80
2011,04,20,09,20,4.90
2011,04,20,09,21,4.90
2011,04,20,09,22,5.00
2011,04,20,09,23,5.00
2011,04,20,09,24,5.10
2011,04,20,09,25,5.20
2011,04,20,09,26,5.20
2011,04,20,09,27,5.20
2011,04,20,09,28,5.20
2011,04,20,09,29,5.30
2011,04,20,09,30,5.30
2011,04,20,09,31,5.30
2011,04,20,09,32,5.30
2011,04,20,09,33,5.30
2011,04,20,09,34,5.30
2011,04,20,09,35,5.40
2011,04,20,09,36,5.40
2011,04,20,09,37,5.40
2011,04,20,09,38,5.50
2011,04,20,09,39,5.60
2011,04,20,09,40,5.60
2011,04,20,09,41,5.60
2011,04,20,09,42,5.60
2011,04,20,09,43,5.70
2011,04,20,09,44,5.70
2011,04,20,09,45,5.70
2011,04,20,09,46,5.70
2011,04,20,09,47,5.70
2011,04,20,09,48,5.80
2011,04,20,09,49,5.80
2011,04,20,09,50,5.90
2011,04,20,09,51,6.00
2011,04,20,09,52,6.00
2011,04,20,09,53,6.00
2011,04,20,09,54,6.10
2011,04,20,09,55,6.10
2011,04,20,09,56,6.10
2011,04,20,09,57,6.10
2011,04,20,09,58,6.10
2011,04,20,09,59,6.10
2011,04,20,10,00,6.10
2011,04,20,10,01,6.20
2011,04,20,10,02,6.20
2011,04,20,10,03,6.30
2011,04,20,10,04,6.40
2011,04,20,10,05,6.40
2011,04,20,10,06,6.50
2011,04,20,10,07,6.60
2011,04,20,10,08,6.60
2011,04,20,10,09,6.60
2011,04,20,10,10,6.50
2011,04,20,10,11,6.50
2011,04,20,10,12,6.50
2011,04,20,10,13,6.50
2011,04,20,10,14,6.50
2011,04,20,10,15,6.50
2011,04,20,10,16,6.60
2011,04,20,10,17,6.70
2011,04,20,10,18,6.70
2011,04,20,10,19,6.80
2011,04,20,10,20,6.80
2011,04,20,10,21,6.80
2011,04,20,10,22,6.80
2011,04,20,10,23,6.70
2011,04,20,10,24,6.70
2011,04,20,10,25,6.70
2011,04,20,10,26,6.70
2011,04,20,10,27,6.80
2011,04,20,10,28,6.80
2011,04,20,10,29,6.80
2011,04,20,10,30,6.80
2011,04,20,10,31,6.90
2011,04,20,10,32,6.90
2011,04,20,10,33,6.80
2011,04,20,10,34,6.80
2011,04,20,10,35,6.80
2011,04,20,10,36,6.90
2011,04,20,10,37,7.00
2011,04,20,10,38,7.00
2011,04,20,10,39,7.10
2011,04,20,10,40,7.20
2011,04,20,10,41,7.20
2011,04,20,10,42,7.20
2011,04,20,10,43,7.30
2011,04,20,10,44,7.30
2011,04,20,10,45,7.30
2011,04,20,10,46,7.30
2011,04,20,10,47,7.20
2011,04,20,10,48,7.20
2011,04,20,10,49,7.20
2011,04,20,10,50,7.30
2011,04,20,10,51,7.30
2011,04,20,10,52,7.40
2011,04,20,10,53,7.40
2011,04,20,10,54,7.40
2011,04,20,10,55,7.50
2011,04,20,10,56,7.60
2011,04,20,10,57,7.60
2011,04,20,10,58,7.60
2011,04,20,10,59,7.70
2011,04,20,11,00,7.80
2011,04,20,11,01,7.80
2011,04,20,11,02,7.80
2011,04,20,11,03,7.70
2011,04,20,11,04,7.60
2011,04,20,11,05,7.60
2011,04,20,11,06,7.60
2011,04,20,11,07,7.70
2011,04,20,11,08,7.70
2011,04,20,11,09,7.70
2011,04,20,11,10,7.70
2011,04,20,11,11,7.80
2011,04,20,11,12,7.80
2011,04,20,11,13,7.80
2011,04,20,11,14,7.90
2011,04,20,11,15,7.90
2011,04,20,11,16,7.80
2011,04,20,11,17,7.80
2011,04,20,11,18,7.80
2011,04,20,11,19,7.80
2011,04,20,11,20,7.70
2011,04,20,11,21,7.70
2011,04,20,11,22,7.70
2011,04,20,11,23,7.70
2011,04,20,11,24,7.80
2011,04,20,11,25,7.80
2011,04,20,11,26,7.90
2011,04,20,11,27,8.00
2011,04,20,11,28,8.10
2011,04,20,11,29,8.10
2011,04,20,11,30,8.20
2011,04,20,11,31,8.20
2011,04,20,11,32,8.20
2011,04,20,11,33,8.20
2011,04,20,11,34,8.10
2011,04,20,11,35,8.10
2011,04,20,11,36,8.00
2011,04,20,11,37,8.10
2011,04,20,11,38,8.20
2011,04,20,11,39,8.20
2011,04,20,11,40,8.20
2011,04,20,11,41,8.20
2011,04,20,11,42,8.20
2011,04,20,11,43,8.10
2011,04,20,11,44,8.10
2011,04,20,11,45,8.10
2011,04,20,11,46,8.20
2011,04,20,11,47,8.20
2011,04,20,11,48,8.30
2011,04,20,11,49,8.50
2011,04,20,11,50,8.60
2011,04,20,11,51,8.60
2011,04,20,11,52,8.70
2011,04,20,11,53,8.80
2011,04,20,11,54,8.80
2011,04,20,11,55,8.80
2011,04,20,11,56,8.70
2011,04,20,11,57,8.50
2011,04,20,11,58,8.40
2011,04,20,11,59,8.50
2011,04,20,12,00,8.60
2011,04,20,12,01,8.80
2011,04,20,12,02,8.90
2011,04,20,12,03,9.00
2011,04,20,12,04,9.10
2011,04,20,12,05,9.30
2011,04,20,12,06,9.30
2011,04,20,12,07,9.20
2011,04,20,12,08,9.10
2011,04,20,12,09,9.00
2011,04,20,12,10,9.00
2011,04,20,12,11,9.00
2011,04,20,12,12,9.00
2011,04,20,12,13,9.00
2011,04,20,12,14,9.00
2011,04,20,12,15,8.80
2011,04,20,12,16,8.80
2011,04,20,12,17,8.80
2011,04,20,12,18,8.70
2011,04,20,12,19,8.70
2011,04,20,12,20,8.70
2011,04,20,12,21,8.60
2011,04,20,12,22,8.60
2011,04,20,12,23,8.60
2011,04,20,12,24,8.60
2011,04,20,12,25,8.60
2011,04,20,12,26,8.70
2011,04,20,12,27,8.70
2011,04,20,12,28,8.70
2011,04,20,12,29,8.60
2011,04,20,12,30,8.60
2011,04,20,12,31,8.60
2011,04,20,12,32,8.70
2011,04,20,12,33,8.70
2011,04,20,12,34,8.70
2011,04,20,12,35,8.70
2011,04,20,12,36,8.70
2011,04,20,12,37,8.90
2011,04,20,12,38,9.00
2011,04,20,12,39,9.10
2011,04,20,12,40,9.10
2011,04,20,12,41,9.10
2011,04,20,12,42,9.00
2011,04,20,12,43,8.90
2011,04,20,12,44,8.80
2011,04,20,12,45,8.80
2011,04,20,12,46,8.90
2011,04,20,12,47,9.00
2011,04,20,12,48,9.10
2011,04,20,12,49,9.20
2011,04,20,12,50,9.40
2011,04,20,12,51,9.50
2011,04,20,12,52,9.60
2011,04,20,12,53,9.60
2011,04,20,12,54,9.60
2011,04,20,12,55,9.60
2011,04,20,12,56,9.60
2011,04,20,12,57,9.70
2011,04,20,12,58,9.80
2011,04,20,12,59,9.80
2011,04,20,13,00,9.80
2011,04,20,13,01,9.70
2011,04,20,13,02,9.80
2011,04,20,13,03,9.80
2011,04,20,13,04,9.80
2011,04,20,13,05,9.80
2011,04,20,13,06,9.80
2011,04,20,13,07,9.80
2011,04,20,13,08,9.80
2011,04,20,13,09,9.70
2011,04,20,13,10,9.70
2011,04,20,13,11,9.70
2011,04,20,13,12,9.60
2011,04,20,13,13,9.50
2011,04,20,13,14,9.30
2011,04,20,13,15,9.20
2011,04,20,13,16,9.10
2011,04,20,13,17,9.10
2011,04,20,13,18,9.00
2011,04,20,13,19,9.00
2011,04,20,13,20,8.90
2011,04,20,13,21,8.80
2011,04,20,13,22,8.90
2011,04,20,13,23,8.90
2011,04,20,13,24,8.90
2011,04,20,13,25,9.00
2011,04,20,13,26,9.00
2011,04,20,13,27,9.10
2011,04,20,13,28,9.10
2011,04,20,13,29,9.10
2011,04,20,13,30,9.20
2011,04,20,13,31,9.30
2011,04,20,13,32,9.40
2011,04,20,13,33,9.40
2011,04,20,13,34,9.40
2011,04,20,13,35,9.30
2011,04,20,13,36,9.20
2011,04,20,13,37,9.10
2011,04,20,13,38,9.20
2011,04,20,13,39,9.30
2011,04,20,13,40,9.30
2011,04,20,13,41,9.30
2011,04,20,13,42,9.30
2011,04,20,13,43,9.30
2011,04,20,13,44,9.30
2011,04,20,13,45,9.30
2011,04,20,13,46,9.30
2011,04,20,13,47,9.20
2011,04,20,13,48,9.20
2011,04,20,13,49,9.20
2011,04,20,13,50,9.20
2011,04,20,13,51,9.20
2011,04,20,13,52,9.20
2011,04,20,13,53,9.30
2011,04,20,13,54,9.40
2011,04,20,13,55,9.50
2011,04,20,13,56,9.60
2011,04,20,13,57,9.60
2011,04,20,13,58,9.60
2011,04,20,13,59,9.70
2011,04,20,14,00,9.80
2011,04,20,14,01,9.90
2011,04,20,14,02,9.90
2011,04,20,14,03,9.90
2011,04,20,14,04,9.90
2011,04,20,14,05,9.90
2011,04,20,14,06,9.90
2011,04,20,14,07,9.90
2011,04,20,14,08,9.90
2011,04,20,14,09,9.90
2011,04,20,14,10,9.90
2011,04,20,14,11,10.00
2011,04,20,14,12,10.00
2011,04,20,14,13,10.10
2011,04,20,14,14,10.10
2011,04,20,14,15,10.10
2011,04,20,14,16,10.10
2011,04,20,14,17,10.00
2011,04,20,14,18,9.90
2011,04,20,14,19,9.80
2011,04,20,14,20,9.90
2011,04,20,14,21,10.00
2011,04,20,14,22,10.10
2011,04,20,14,23,10.10
2011,04,20,14,24,10.10
2011,04,20,14,25,10.20
2011,04,20,14,26,10.10
2011,04,20,14,27,10.00
2011,04,20,14,28,10.00
2011,04,20,14,29,10.00
2011,04,20,14,30,10.00
2011,04,20,14,31,10.10
2011,04,20,14,32,10.10
2011,04,20,14,33,10.20
2011,04,20,14,34,10.20
2011,04,20,14,35,10.10
2011,04,20,14,36,10.00
2011,04,20,14,37,9.90
2011,04,20,14,38,9.90
2011,04,20,14,39,9.80
2011,04,20,14,40,9.80
2011,04,20,14,41,9.80
2011,04,20,14,42,9.90
2011,04,20,14,43,10.00
2011,04,20,14,44,10.00
2011,04,20,14,45,10.00
2011,04,20,14,46,10.10
2011,04,20,14,47,10.00
2011,04,20,14,48,10.10
2011,04,20,14,49,10.20
2011,04,20,14,50,10.20
2011,04,20,14,51,10.20
2011,04,20,14,52,10.20
2011,04,20,14,53,10.20
2011,04,20,14,54,10.00
2011,04,20,14,55,9.80
2011,04,20,14,56,9.80
2011,04,20,14,57,9.70
2011,04,20,14,58,9.80
2011,04,20,14,59,9.90
2011,04,20,15,00,10.00
2011,04,20,15,01,10.20
2011,04,20,15,02,10.20
2011,04,20,15,03,10.30
2011,04,20,15,04,10.30
2011,04,20,15,05,10.30
2011,04,20,15,06,10.40
2011,04,20,15,07,10.40
2011,04,20,15,08,10.40
2011,04,20,15,09,10.40
2011,04,20,15,10,10.40
2011,04,20,15,11,10.40
2011,04,20,15,12,10.40
2011,04,20,15,13,10.40
2011,04,20,15,14,10.40
2011,04,20,15,15,10.40
2011,04,20,15,16,10.40
2011,04,20,15,17,10.20
2011,04,20,15,18,10.00
2011,04,20,15,19,9.90
2011,04,20,15,20,9.90
2011,04,20,15,21,9.80
2011,04,20,15,22,9.80
2011,04,20,15,23,9.80
2011,04,20,15,24,9.80
2011,04,20,15,25,9.80
2011,04,20,15,26,9.80
2011,04,20,15,27,9.80
2011,04,20,15,28,9.80
2011,04,20,15,29,9.90
2011,04,20,15,30,9.90
2011,04,20,15,31,9.90
2011,04,20,15,32,10.00
2011,04,20,15,33,10.10
2011,04,20,15,34,10.20
2011,04,20,15,35,10.30
2011,04,20,15,36,10.30
2011,04,20,15,37,10.40
2011,04,20,15,38,10.50
2011,04,20,15,39,10.40
2011,04,20,15,40,10.20
2011,04,20,15,41,10.20
2011,04,20,15,42,10.10
2011,04,20,15,43,10.20
2011,04,20,15,44,10.20
2011,04,20,15,45,10.30
2011,04,20,15,46,10.30
2011,04,20,15,47,10.30
2011,04,20,15,48,10.30
2011,04,20,15,49,10.30
2011,04,20,15,50,10.30
2011,04,20,15,51,10.30
2011,04,20,15,52,10.40
2011,04,20,15,53,10.40
2011,04,20,15,54,10.50
2011,04,20,15,55,10.70
2011,04,20,15,56,10.70
2011,04,20,15,57,10.70
2011,04,20,15,58,10.70
2011,04,20,15,59,10.70
2011,04,20,16,00,10.70
2011,04,20,16,01,10.60
2011,04,20,16,02,10.60
2011,04,20,16,03,10.60
2011,04,20,16,04,10.60
2011,04,20,16,05,10.70
2011,04,20,16,06,10.70
2011,04,20,16,07,10.70
2011,04,20,16,08,10.60
2011,04,20,16,09,10.50
2011,04,20,16,10,10.50
2011,04,20,16,11,10.50
2011,04,20,16,12,10.50
2011,04,20,16,13,10.50
2011,04,20,16,14,10.60
2011,04,20,16,15,10.60
2011,04,20,16,16,10.50
2011,04,20,16,17,10.50
2011,04,20,16,18,10.50
2011,04,20,16,19,10.60
2011,04,20,16,20,10.60
2011,04,20,16,21,10.60
2011,04,20,16,22,10.60
2011,04,20,16,23,10.60
2011,04,20,16,24,10.60
2011,04,20,16,25,10.60
2011,04,20,16,26,10.60
2011,04,20,16,27,10.60
2011,04,20,16,28,10.70
2011,04,20,16,29,10.70
2011,04,20,16,30,10.70
2011,04,20,16,31,10.80
2011,04,20,16,32,10.80
2011,04,20,16,33,10.80
2011,04,20,16,34,10.80
2011,04,20,16,35,10.80
2011,04,20,16,36,10.90
2011,04,20,16,37,11.00
2011,04,20,16,38,11.10
2011,04,20,16,39,11.10
2011,04,20,16,40,11.00
2011,04,20,16,41,10.80
2011,04,20,16,42,10.70
2011,04,20,16,43,10.70
2011,04,20,16,44,10.70
2011,04,20,16,45,10.70
2011,04,20,16,46,10.80
2011,04,20,16,47,10.80
2011,04,20,16,48,10.80
2011,04,20,16,49,10.90
2011,04,20,16,50,10.90
2011,04,20,16,51,10.90
2011,04,20,16,52,11.00
2011,04,20,16,53,11.10
2011,04,20,16,54,11.20
2011,04,20,16,55,11.30
2011,04,20,16,56,11.40
2011,04,20,16,57,11.40
2011,04,20,16,58,11.50
2011,04,20,16,59,11.60
2011,04,20,17,00,11.60
2011,04,20,17,01,11.50
2011,04,20,17,02,11.30
2011,04,20,17,03,11.20
2011,04,20,17,04,10.90
2011,04,20,17,05,10.80
2011,04,20,17,06,10.70
2011,04,20,17,07,10.60
2011,04,20,17,08,10.50
2011,04,20,17,09,10.50
2011,04,20,17,10,10.50
2011,04,20,17,11,10.50
2011,04,20,17,12,10.60
2011,04,20,17,13,10.70
2011,04,20,17,14,10.80
2011,04,20,17,15,10.80
2011,04,20,17,16,10.80
2011,04,20,17,17,10.80
2011,04,20,17,18,10.80
2011,04,20,17,19,10.80
2011,04,20,17,20,10.80
2011,04,20,17,21,10.80
2011,04,20,17,22,10.70
2011,04,20,17,23,10.60
2011,04,20,17,24,10.50
2011,04,20,17,25,10.40
2011,04,20,17,26,10.20
2011,04,20,17,27,10.10
2011,04,20,17,28,10.00
2011,04,20,17,29,10.00
2011,04,20,17,30,9.90
2011,04,20,17,31,9.80
2011,04,20,17,32,9.80
2011,04,20,17,33,9.80
2011,04,20,17,34,9.70
2011,04,20,17,35,9.60
2011,04,20,17,36,9.50
2011,04,20,17,37,9.40
2011,04,20,17,38,9.30
2011,04,20,17,39,9.20
2011,04,20,17,40,9.10
2011,04,20,17,41,9.00
2011,04,20,17,42,8.90
2011,04,20,17,43,8.80
2011,04,20,17,44,8.80
2011,04,20,17,45,8.80
2011,04,20,17,46,8.70
2011,04,20,17,47,8.70
2011,04,20,17,48,8.70